SSEC Globe Logo

Space Science and Engineering Center

Wisconsin State Observations

ASUS43 KMKX 060421                                              2021218 0421
RWRWI
WISCONSIN REGIONAL WEATHER ROUNDUP
NATIONAL WEATHER SERVICE MILWAUKEE/SULLIVAN WI
NOTE: "FAIR" INDICATES FEW OR NO CLOUDS BELOW 12,000 FEET WITH NO
SIGNIFICANT WEATHER AND/OR OBSTRUCTIONS TO VISIBILITY.

CITY           SKY/WX    TMP DP  RH WIND       PRES   REMARKS
SUPERIOR ARPT  PTCLDY    65  65  99 SW5       29.83S
ASHLAND        CLOUDY    68  63  84 S13G20    29.85R
HAYWARD        CLOUDY    67  64  90 SW5       29.87R
SIREN          MOCLDY    64  63  96 S3        29.87F FOG
CUMBERLAND     CLOUDY    64  61  88 S7        29.88F
RICE LAKE      CLOUDY    66  65  97 SE14      29.88F
CHETEK         LGT RAIN  67  65  95 S9        29.90F
LADYSMITH        N/A     66  66 100 S8        29.92F
EAU CLAIRE     CLOUDY    68  64  87 W3        29.94R
MENOMONIE      RAIN      63  61  95 SW3       29.94F
NEW RICHMOND   RAIN      64  61  90 S5        29.90S
OSCEOLA        CLOUDY    67  67  98 CALM      29.91F


CITY           SKY/WX    TMP DP  RH WIND       PRES   REMARKS
MANITOWISH WTR CLOUDY    64  64 100 S7        29.91F
ARBOR VITAE    CLOUDY    64  51  62 S10       29.92F
WOODRUFF       CLOUDY    64  51  62 S10       29.92F
RHINELANDER    CLOUDY    63  59  87 S10       29.96S
EAGLE RIVER    CLOUDY    63  61  92 SW7       29.94F
LAND O LAKES   CLOUDY    64  60  85 S5        29.93F
PHILLIPS       CLOUDY    64  63  99 S10G16    29.90F
TOMAHAWK       CLOUDY    61  59  91 CALM      29.94F
MEDFORD        CLOUDY    62  60  93 S8        29.95F
MERRILL        CLOUDY    64  61  88 SW5       29.95S


CITY           SKY/WX    TMP DP  RH WIND       PRES   REMARKS
WAUSAU         MOCLDY    68  59  73 S12       29.95F
MOSINEE        PTCLDY    63  59  88 S9        29.98S
MARSHFIELD     MOCLDY    63  58  83 S7        29.96F
STEVENS POINT  CLOUDY    64  58  81 S7        29.97F
WAUPACA        CLOUDY    69  59  70 S5        29.98S
WAUTOMA        NOT AVBL
WISC RAPIDS    MOCLDY    65  59  81 S6        29.97S
CAMP DOUGLAS   MOCLDY    63  60  90 CALM      29.97R


CITY           SKY/WX    TMP DP  RH WIND       PRES   REMARKS
ANTIGO         CLOUDY    63  58  86 S12       29.97S
SHAWANO        CLOUDY    71  59  67 SW5       29.96F
OCONTO         CLOUDY    71  58  64 SW9       29.96R
STURGEON BAY   CLOUDY    71  60  68 SW8       29.97S
GREEN BAY      CLOUDY    71  58  63 SW7       29.97R
MANITOWOC      CLOUDY    73  61  65 W6        29.98S
APPLETON       CLOUDY    70  55  60 S8        29.97S
CLINTONVILLE   CLOUDY    68  58  69 SW5       29.97F
OSHKOSH        CLOUDY    71  60  68 S13       29.96F


CITY           SKY/WX    TMP DP  RH WIND       PRES   REMARKS
LA CROSSE      PTCLDY    70  63  78 S7        29.94R
SPARTA           N/A     64  60  87 CALM      29.96S
VIROQUA        MOCLDY    64  64 100 S5        29.98R
BOSCOBEL       PTCLDY    66  65  96 CALM      29.96S
PRAIRIE DU CHI MOCLDY    68  62  80 CALM      29.96R
PLATTEVILLE    CLOUDY    70  65  85 S8        29.99S

CITY           SKY/WX    TMP DP  RH WIND       PRES   REMARKS
REEDSBURG      CLOUDY    67  65  93 S8        29.96F
BARABOO/DELLS  CLOUDY    66  62  86 S5        29.97S
LONE ROCK      MOCLDY    67  63  87 N3        29.96F
MINERAL POINT  MOCLDY    66  59  77 S7        29.98F
MADISON        CLOUDY    73  61  65 S12       29.97S
MIDDLETON      CLOUDY    72  61  68 S8        29.99S
WATERTOWN      CLOUDY    70  61  72 S5        29.99S
MONROE         MOCLDY    71  60  68 SW10      29.99S
JANESVILLE     CLOUDY    73  63  68 S7        30.00S


CITY           SKY/WX    TMP DP  RH WIND       PRES   REMARKS
MILWAUKEE      CLOUDY    77  60  55 S7        30.00F
WAUKESHA       CLOUDY    70  59  68 S5        30.01F
MILWAUKEE/TIMM CLOUDY    73  55  53 SW10      30.01S
RACINE         MOCLDY    76  61  59 S6        30.02F
KENOSHA        CLOUDY    77  59  53 S9        30.01F
FOND DU LAC    CLOUDY    73  61  65 S7        29.97F
SHEBOYGAN      CLOUDY    72  63  73 SW7       29.98F
WEST BEND      CLOUDY    70  64  83 S3        30.00S
JUNEAU         CLOUDY    69  63  82 S6        30.00R
LSZ147-162-060500-
LAKE SUPERIOR

STATION/POSITION TIME  TEMP    WIND        PRES    WAVE
                       AIR SEA DIR/SP/G            HT/PER
                 (UTC) (F)     (DEG/KT/KT) (MB)    (FT/S)
W MID LAKE BUOY  0400   67     210/ 17/ 21 1009.7
DEVILS ISLAND    0400   68                 1009.4F
PORT WING        0330   71     190/  8/ 14 1009.8R
SAXON HARBOR     0340   69     180/  9/ 15 1009.1F

LMZ867-665-643>646-060500-
LAKE MICHIGAN

STATION/POSITION TIME  TEMP    WIND        PRES    WAVE
                       AIR SEA DIR/SP/G            HT/PER
                 (UTC) (F)     (DEG/KT/KT) (MB)    (FT/S)
CHAMBERS ISLAND  0340   73     170/  6/ 12   N/A
S GREEN BAY BUOY 0400   79 73  220/ 17/ 21 1013.6    2/ 3
N MID LAKE BUOY  0400   70 69  210/ 14/ 17 1014.1
NORTHPORT PIER   0340   72     200/  1/  5 1014.9S
KEWAUNEE LAKESHO 0336   73     230/  5/  7 1013.6S
SHEBOYGAN LAKESH 0400   74     230/ 10/ 11   N/A
PORT WASHINGTON  0340   75     270/  4/  6 1016.6F
ATWATER BUOY     0400   76 70  200/ 10/ 12 1016.0    1/ 4
MILWAUKEE LAKESH 0400   77     220/  5/  6   N/A
S MID LAKE BUOY  0400   74 72  190/ 14/ 16 1016.0
KENOSHA   LAKESH 0400   76     180/  4/  7 1015.9
TC  - TEMPERATURE IN CELSIUS
VSB - VISIBILITY IN STATUTE MILES
WCI - WIND CHILL INDEX
HX  - HEAT INDEX